Chapel Hill, NC

7:37 PM EST on February 18, 2018 (GMT -0500)
Williams

Weather History for KIGX - February, 2013

Change the Weather History Date:

Sunday, February 10, 2013

  Actual Average Record
Temperature  
Mean Temperature 40 °F -  
Max Temperature 52 °F 48 °F 72 °F (2009)
Min Temperature 28 °F 25 °F 5 °F (1979)
Degree Days  
Heating Degree Days 25    
Moisture  
Dew Point 21 °F    
Average Humidity 50    
Maximum Humidity 79    
Minimum Humidity 27    
Precipitation  
Precipitation 0.04 in - - ()
Sea Level Pressure  
Sea Level Pressure 30.38 in    
Wind  
Wind Speed 2 mph (East)    
Max Wind Speed 7 mph    
Max Gust Speed -    
Visibility 10 miles    
Events Rain    
Averages and records for this station are not official NWS values.
T = Trace of Precipitation, MM = Missing Value Source: NWS Daily Summary

Daily Weather History Graph

Daily Weather History Graph

Search for Another Location

Airport or City:

Trip Planner

Search our weather history database for the weather conditions in past years. The results will help you decide how hot, cold, wet, or windy it might be!

Date:

Astronomy

Feb. 10, 2013 Rise Set
Actual Time 7:08 AM EST 5:53 PM EST
Civil Twilight 6:42 AM EST 6:19 PM EST
Nautical Twilight 6:11 AM EST 6:49 PM EST
Astronomical Twilight 5:42 AM EST 7:19 PM EST
Moon 6:59 AM EST (2/10) 6:38 PM EST (2/10)
Length of Visible Light 11h 37m
Length of Day
10h 44m
New Moon, 0% of the Moon is Illuminated
Feb 10
New Moon
Feb 17
First Quarter
Feb 25
Full
Mar 4
Last Quarter
Mar 11
New

Hourly Weather History & Observations

Time (EST) Temp. Windchill Dew Point Humidity Pressure Visibility Wind Dir Wind Speed Gust Speed Precip Events Conditions
12:56 AM 28.9 °F - 19.9 °F 69% 30.37 in 10.0 mi Calm Calm - N/A   Clear
1:56 AM 28.9 °F - 19.9 °F 69% 30.38 in 10.0 mi Calm Calm - N/A   Clear
2:56 AM 28.0 °F - 19.0 °F 69% 30.40 in 10.0 mi Calm Calm - N/A   Clear
3:56 AM 28.9 °F 25.2 °F 19.0 °F 67% 30.40 in 10.0 mi NE 3.5 mph - N/A   Clear
4:56 AM 30.9 °F - 18.0 °F 59% 30.40 in 10.0 mi Calm Calm - N/A   Clear
5:56 AM 28.9 °F - 19.0 °F 67% 30.43 in 10.0 mi Calm Calm - N/A   Clear
6:56 AM 28.9 °F - 19.0 °F 67% 30.44 in 10.0 mi Calm Calm - N/A   Clear
7:56 AM 30.0 °F 26.5 °F 19.9 °F 66% 30.47 in 10.0 mi NE 3.5 mph - N/A   Clear
8:56 AM 35.1 °F 30.1 °F 18.0 °F 50% 30.49 in 10.0 mi ENE 5.8 mph - N/A   Clear
9:56 AM 37.0 °F 33.3 °F 19.0 °F 48% 30.50 in 10.0 mi Variable 4.6 mph - N/A   Clear
10:56 AM 37.9 °F - 19.0 °F 47% 30.50 in 10.0 mi Calm Calm - N/A   Clear
11:56 AM 43.0 °F 39.5 °F 19.9 °F 40% 30.48 in 10.0 mi ESE 5.8 mph - N/A   Clear
12:56 PM 48.0 °F - 21.0 °F 34% 30.43 in 10.0 mi Variable 5.8 mph - N/A   Clear
1:56 PM 48.9 °F - 19.0 °F 31% 30.38 in 10.0 mi ESE 5.8 mph - N/A   Clear
2:56 PM 50.0 °F - 18.0 °F 28% 30.36 in 10.0 mi Variable 6.9 mph - N/A   Clear
3:56 PM 52.0 °F - 19.0 °F 27% 30.33 in 10.0 mi Calm Calm - N/A   Clear
4:56 PM 50.0 °F - 17.1 °F 27% 30.32 in 10.0 mi SSE 4.6 mph - N/A   Clear
5:56 PM 48.9 °F - 19.0 °F 31% 30.32 in 10.0 mi East 3.5 mph - N/A   Clear
6:56 PM 48.0 °F - 19.9 °F 33% 30.30 in 10.0 mi Calm Calm - N/A   Mostly Cloudy
7:56 PM 46.0 °F - 26.1 °F 46% 30.31 in 10.0 mi Calm Calm - N/A   Overcast
8:56 PM 48.0 °F - 21.9 °F 36% 30.30 in 10.0 mi Calm Calm - N/A   Overcast
9:56 PM 48.0 °F - 23.0 °F 37% 30.31 in 10.0 mi Calm Calm - N/A   Overcast
10:56 PM 42.1 °F 39.2 °F 36.0 °F 79% 30.26 in 9.0 mi ESE 4.6 mph - 0.03 in Rain Light Rain
11:56 PM 44.1 °F 42.5 °F 37.9 °F 79% 30.21 in 10.0 mi Variable 3.5 mph - 0.01 in   Mostly Cloudy